Time,TemperatureF,DewpointF,PressureIn,WindDirection,WindDirectionDegrees,WindSpeedMPH,WindSpeedGustMPH,Humidity,HourlyPrecipIn,Conditions,Clouds,dailyrainin,SoftwareType,DateUTC
2013-06-29 09:55:00,65.3,62.0,29.83,North,355,2.0,2.0,89,0.00,,,0.17,Wunderground v.1.15,2013-06-29 14:55:00,
2013-06-29 09:57:00,65.3,62.0,29.83,North,355,2.0,28.0,89,0.00,,,0.17,Wunderground v.1.15,2013-06-29 14:57:00,
2013-06-29 09:58:00,65.4,62.1,29.83,NNW,334,2.0,28.0,89,0.00,,,0.17,Wunderground v.1.15,2013-06-29 14:58:00,
2013-06-29 10:01:00,65.6,61.6,29.83,NE,46,2.0,28.0,87,0.00,,,0.17,Wunderground v.1.15,2013-06-29 15:01:00,
2013-06-29 10:07:00,66.1,61.5,29.83,ESE,102,2.0,28.0,85,0.00,,,0.17,Wunderground v.1.15,2013-06-29 15:07:00,
2013-06-29 10:10:00,66.3,61.3,29.83,East,84,2.0,2.0,84,0.00,,,0.17,Wunderground v.1.15,2013-06-29 15:10:00,
2013-06-29 10:15:00,66.7,61.4,29.83,NE,54,2.0,28.0,83,0.00,,,0.17,Wunderground v.1.15,2013-06-29 15:15:00,
2013-06-29 10:21:00,67.2,61.5,29.83,North,5,1.0,28.0,82,0.00,,,0.17,Wunderground v.1.15,2013-06-29 15:21:00,
2013-06-29 10:27:00,67.9,62.5,29.83,ENE,63,1.0,28.0,83,0.00,,,0.17,Wunderground v.1.15,2013-06-29 15:27:00,
2013-06-29 10:33:00,68.6,62.2,29.83,North,355,2.0,28.0,80,0.00,,,0.17,Wunderground v.1.15,2013-06-29 15:33:00,
2013-06-29 10:38:00,69.2,61.7,29.83,ENE,57,2.0,28.0,77,0.00,,,0.17,Wunderground v.1.15,2013-06-29 15:38:00,
2013-06-29 10:44:00,69.7,62.2,29.83,North,9,2.0,28.0,77,0.00,,,0.17,Wunderground v.1.15,2013-06-29 15:44:00,
2013-06-29 10:49:00,70.4,63.2,29.83,NE,44,2.0,28.0,78,0.00,,,0.17,Wunderground v.1.15,2013-06-29 15:49:00,
2013-06-29 10:54:00,70.9,62.6,29.83,NNW,346,3.0,28.0,75,0.00,,,0.17,Wunderground v.1.15,2013-06-29 15:54:00,
2013-06-29 11:00:00,70.8,61.3,29.83,NE,38,3.0,3.0,72,0.00,,,0.17,Wunderground v.1.15,2013-06-29 16:00:00,
2013-06-29 11:05:00,70.8,62.1,29.83,North,355,2.0,28.0,74,0.00,,,0.17,Wunderground v.1.15,2013-06-29 16:05:00,
2013-06-29 11:11:00,71.0,61.5,29.84,NNW,348,2.0,28.0,72,0.00,,,0.17,Wunderground v.1.15,2013-06-29 16:11:00,
2013-06-29 11:17:00,71.0,61.5,29.84,North,5,2.0,28.0,72,0.00,,,0.17,Wunderground v.1.15,2013-06-29 16:17:00,
2013-06-29 11:22:00,71.0,61.1,29.84,ENE,78,2.0,28.0,71,0.00,,,0.17,Wunderground v.1.15,2013-06-29 16:22:00,
2013-06-29 11:28:00,71.0,61.5,29.84,NE,38,2.0,28.0,72,0.00,,,0.17,Wunderground v.1.15,2013-06-29 16:28:00,
2013-06-29 11:34:00,71.5,61.6,29.84,NNE,32,3.0,28.0,71,0.00,,,0.17,Wunderground v.1.15,2013-06-29 16:34:00,
2013-06-29 11:39:00,71.7,61.4,29.84,NE,49,2.0,28.0,70,0.00,,,0.17,Wunderground v.1.15,2013-06-29 16:39:00,
2013-06-29 11:44:00,72.2,62.3,29.84,NNE,25,1.0,28.0,71,0.00,,,0.17,Wunderground v.1.15,2013-06-29 16:44:00,
2013-06-29 11:50:00,72.8,62.0,29.84,North,5,1.0,28.0,69,0.00,,,0.17,Wunderground v.1.15,2013-06-29 16:50:00,
2013-06-29 11:56:00,73.6,62.4,29.84,NNE,29,2.0,28.0,68,0.00,,,0.17,Wunderground v.1.15,2013-06-29 16:56:00,
2013-06-29 12:01:00,74.1,62.4,29.84,North,5,3.0,28.0,67,0.00,,,0.17,Wunderground v.1.15,2013-06-29 17:01:00,
2013-06-29 12:07:00,74.2,61.7,29.84,North,360,2.0,28.0,65,0.00,,,0.17,Wunderground v.1.15,2013-06-29 17:07:00,
2013-06-29 12:09:00,74.2,62.5,29.84,ENE,65,2.0,28.0,67,0.00,,,0.17,Wunderground v.1.15,2013-06-29 17:09:00,
2013-06-29 12:15:00,73.9,63.5,29.84,North,360,0.0,28.0,70,0.00,,,0.17,Wunderground v.1.15,2013-06-29 17:15:00,
2013-06-29 12:20:00,73.9,62.2,29.83,NE,44,1.0,1.0,67,0.00,,,0.17,Wunderground v.1.15,2013-06-29 17:20:00,
2013-06-29 12:25:00,73.7,60.8,29.84,NNE,28,1.0,28.0,64,0.00,,,0.17,Wunderground v.1.15,2013-06-29 17:25:00,
2013-06-29 12:31:00,73.3,60.8,29.84,North,360,1.0,28.0,65,0.00,,,0.17,Wunderground v.1.15,2013-06-29 17:31:00,
2013-06-29 12:37:00,72.6,60.2,29.84,NNE,22,1.0,28.0,65,0.00,,,0.17,Wunderground v.1.15,2013-06-29 17:37:00,
2013-06-29 12:42:00,72.0,60.0,29.84,North,360,1.0,28.0,66,0.00,,,0.17,Wunderground v.1.15,2013-06-29 17:42:00,
2013-06-29 12:47:00,71.6,60.9,29.84,NNE,23,1.0,28.0,69,0.00,,,0.17,Wunderground v.1.15,2013-06-29 17:47:00,
2013-06-29 12:52:00,72.1,61.4,29.84,NNE,22,1.0,28.0,69,0.00,,,0.17,Wunderground v.1.15,2013-06-29 17:52:00,
2013-06-29 12:58:00,73.4,62.6,29.84,ENE,63,1.0,28.0,69,0.00,,,0.17,Wunderground v.1.15,2013-06-29 17:58:00,
2013-06-29 13:04:00,74.6,63.8,29.84,NE,37,1.0,28.0,69,0.00,,,0.17,Wunderground v.1.15,2013-06-29 18:04:00,
2013-06-29 13:10:00,75.4,62.8,29.84,NNE,31,1.0,28.0,65,0.00,,,0.17,Wunderground v.1.15,2013-06-29 18:10:00,
2013-06-29 13:15:00,75.1,61.6,29.84,NE,40,3.0,28.0,63,0.00,,,0.17,Wunderground v.1.15,2013-06-29 18:15:00,
2013-06-29 13:21:00,74.2,61.2,29.84,NNW,340,3.0,28.0,64,0.00,,,0.17,Wunderground v.1.15,2013-06-29 18:21:00,
2013-06-29 13:26:00,74.3,62.2,29.84,NNW,348,3.0,28.0,66,0.00,,,0.17,Wunderground v.1.15,2013-06-29 18:26:00,
2013-06-29 13:32:00,74.7,62.1,29.85,North,5,3.0,28.0,65,0.00,,,0.17,Wunderground v.1.15,2013-06-29 18:32:00,
2013-06-29 13:38:00,75.3,60.9,29.84,East,86,3.0,28.0,61,0.00,,,0.17,Wunderground v.1.15,2013-06-29 18:38:00,
2013-06-29 13:43:00,75.9,62.4,29.84,NE,42,4.0,28.0,63,0.00,,,0.17,Wunderground v.1.15,2013-06-29 18:43:00,
2013-06-29 13:49:00,76.7,62.2,29.84,NE,42,3.0,28.0,61,0.00,,,0.17,Wunderground v.1.15,2013-06-29 18:49:00,
2013-06-29 13:55:00,76.9,60.0,29.84,NNW,342,3.0,28.0,56,0.00,,,0.17,Wunderground v.1.15,2013-06-29 18:55:00,
2013-06-29 14:01:00,77.1,62.6,29.84,NE,54,2.0,28.0,61,0.00,,,0.17,Wunderground v.1.15,2013-06-29 19:01:00,
2013-06-29 14:07:00,77.6,62.1,29.85,NNE,30,3.0,28.0,59,0.00,,,0.17,Wunderground v.1.15,2013-06-29 19:07:00,
2013-06-29 14:12:00,77.9,60.9,29.84,NE,46,3.0,28.0,56,0.00,,,0.17,Wunderground v.1.15,2013-06-29 19:12:00,
2013-06-29 14:18:00,78.5,62.5,29.84,NNE,32,2.0,28.0,58,0.00,,,0.17,Wunderground v.1.15,2013-06-29 19:18:00,
2013-06-29 14:23:00,78.6,62.1,29.84,NNE,26,2.0,28.0,57,0.00,,,0.17,Wunderground v.1.15,2013-06-29 19:23:00,
2013-06-29 14:28:00,78.6,62.6,29.84,NE,54,2.0,28.0,58,0.00,,,0.17,Wunderground v.1.15,2013-06-29 19:28:00,
2013-06-29 14:34:00,77.8,61.8,29.84,NE,45,2.0,28.0,58,0.00,,,0.17,Wunderground v.1.15,2013-06-29 19:34:00,
2013-06-29 14:40:00,77.8,60.8,29.84,NNE,20,2.0,2.0,56,0.00,,,0.17,Wunderground v.1.15,2013-06-29 19:40:00,
2013-06-29 14:46:00,78.1,59.6,29.84,NNE,23,2.0,28.0,53,0.00,,,0.17,Wunderground v.1.15,2013-06-29 19:46:00,
2013-06-29 14:52:00,77.7,59.7,29.85,NNE,15,2.0,28.0,54,0.00,,,0.17,Wunderground v.1.15,2013-06-29 19:52:00,
2013-06-29 14:58:00,76.9,60.0,29.85,NE,36,2.0,28.0,56,0.00,,,0.17,Wunderground v.1.15,2013-06-29 19:58:00,
2013-06-29 15:04:00,75.9,59.1,29.85,ENE,57,2.0,28.0,56,0.00,,,0.17,Wunderground v.1.15,2013-06-29 20:04:00,
2013-06-29 15:09:00,75.1,59.3,29.85,ENE,63,2.0,28.0,58,0.00,,,0.17,Wunderground v.1.15,2013-06-29 20:09:00,
2013-06-29 15:14:00,74.4,58.7,29.85,ENE,67,2.0,28.0,58,0.00,,,0.17,Wunderground v.1.15,2013-06-29 20:14:00,
2013-06-29 15:19:00,74.1,60.7,29.85,ENE,59,2.0,28.0,63,0.00,,,0.17,Wunderground v.1.15,2013-06-29 20:19:00,
2013-06-29 15:24:00,74.1,60.7,29.85,NNE,30,2.0,11.0,63,0.00,,,0.17,Wunderground v.1.15,2013-06-29 20:24:00,
2013-06-29 16:15:00,76.7,60.8,29.85,North,355,1.0,28.0,58,0.00,,,0.17,Wunderground v.1.15,2013-06-29 21:15:00,
2013-06-29 16:21:00,77.3,60.4,29.85,NNE,19,1.0,28.0,56,0.00,,,0.17,Wunderground v.1.15,2013-06-29 21:21:00,
2013-06-29 16:26:00,77.3,59.4,29.85,ENE,57,2.0,28.0,54,0.00,,,0.17,Wunderground v.1.15,2013-06-29 21:26:00,
2013-06-29 16:31:00,77.0,60.1,29.86,North,360,3.0,28.0,56,0.00,,,0.17,Wunderground v.1.15,2013-06-29 21:31:00,
2013-06-29 16:36:00,76.6,58.7,29.86,NNW,342,2.0,28.0,54,0.00,,,0.17,Wunderground v.1.15,2013-06-29 21:36:00,
2013-06-29 16:42:00,76.0,58.7,29.86,NE,44,1.0,28.0,55,0.00,,,0.17,Wunderground v.1.15,2013-06-29 21:42:00,
2013-06-29 16:47:00,75.5,58.2,29.86,NE,38,1.0,28.0,55,0.00,,,0.17,Wunderground v.1.15,2013-06-29 21:47:00,
2013-06-29 16:53:00,75.4,60.5,29.86,North,5,1.0,28.0,60,0.00,,,0.17,Wunderground v.1.15,2013-06-29 21:53:00,